• MPC Preparation (Info)

  • MPEC 2014-M77 : 2014 MM27

    The following Minor Planet Electronic Circular may be linked-to from your own Web pages, but must not otherwise be redistributed electronically.

    A form allowing access to any MPEC is at the bottom of this page.


    Read MPEC 2014-M76 Read MPEC 2014-N01


    M.P.E.C. 2014-M77                                Issued 2014 June 30, 15:02 UT
    
         The Minor Planet Electronic Circulars contain information on unusual
             minor planets and routine data on comets.  They are published
       on behalf of Commission 20 of the International Astronomical Union by the
              Minor Planet Center, Smithsonian Astrophysical Observatory,
                              Cambridge, MA 02138, U.S.A.
    
                 Prepared using the Tamkin Foundation Computer Network
    
                                  MPC@CFA.HARVARD.EDU
                URL https://www.minorplanetcenter.net/    ISSN 1523-6714
    
                                       2014 MM27
    
    Observations:
         K14M27M* C2014 06 28.37699 16 27 54.150+05 09 15.69         20.9 wLEM077F51
         K14M27M  C2014 06 28.37832 16 27 54.463+05 09 06.25         20.8 wLEM077F51
         K14M27M  C2014 06 28.38854 16 27 56.876+05 07 49.74         21.0 wLEM077F51
         K14M27M  C2014 06 28.38986 16 27 57.196+05 07 39.44         20.8 wLEM077F51
         K14M27M  C2014 06 28.40008 16 27 59.624+05 06 22.43         21.0 wLEM077F51
         K14M27M  C2014 06 28.40140 16 27 59.909+05 06 13.52         21.0 wLEM077F51
         K14M27M  C2014 06 28.41164 16 28 02.364+05 04 56.28         20.6 wLEM077F51
         K14M27M _C2014 06 29.26872916 31 47.933+03 19 48.62         20.4 RtEM077568
         K14M27M _C2014 06 29.26998416 31 48.222+03 19 39.55         20.3 RtEM077568
         K14M27M _C2014 06 29.27126716 31 48.521+03 19 30.29         20.2 RtEM077568
         K14M27M KC2014 06 30.21041 16 35 41.87 +01 28 15.9                oEM077291
         K14M27M KC2014 06 30.21288 16 35 42.41 +01 27 58.8          20.2 RoEM077291
    
    Observer details:
    291 LPL/Spacewatch II.  Observer R. S. McMillan.  1.8-m f/2.7 reflector + CCD.
    568 Mauna Kea.  Observers R. J. Wainscoat, L. Wells.  Measurers M. Micheli,
        R. J. Wainscoat.  3.6-m Canada-France-Hawaii Telescope + CCD.
    F51 Pan-STARRS 1, Haleakala.  Observers N. Primak, A. Schultz, T. Goggia,
        M. Willman.  1.8-m Ritchey-Chretien + CCD.
    
    Orbital elements:
    2014 MM27                                                Earth MOID = 0.0971 AU
    Epoch 2014 May 23.0 TT = JDT 2456800.5                  MPC
    M   9.38905              (2000.0)            P               Q
    n   0.53222905     Peri.  102.56843     -0.81050281     +0.56755322
    a   1.5080081      Node   112.18405     -0.57954861     -0.74121507
    e   0.3509210      Incl.    8.99691     -0.08490348     -0.35844605
    P   1.85           H   23.5           G   0.15           U   8
    Residuals in seconds of arc
    140628 F51  0.1+  0.4-    140628 F51  0.1+  0.5-    140629 568  0.1-  0.1-
    140628 F51  0.1+  0.2+    140628 F51  0.3-  0.5+    140629 568  0.1-  0.1-
    140628 F51  0.0   0.3+    140628 F51  0.0   0.0     140630 291  0.1+  0.0
    140628 F51  0.1+  0.1-    140629 568  0.1-  0.1-    140630 291  0.0   0.1+
    
    Ephemeris:
    2014 MM27                a,e,i = 1.51, 0.35, 9                   q = 0.9788
    Date    TT    R. A. (2000) Decl.     Delta      r     Elong.  Phase     V
    2014 05 31    12 37 25.1 +59 38 59   0.1423  1.0132    85.7    86.2    22.3
    ...
    2014 06 15    15 08 52.9 +36 44 27   0.1121  1.0612   111.1    63.2    21.1
    ...
    2014 06 23    16 01 30.0 +17 21 08   0.1156  1.0931   129.2    46.1    20.8
    ...
    2014 06 29    16 30 36.9 +03 52 48   0.1297  1.1192   140.1    35.6    20.8
    2014 06 30    16 34 49.3 +01 53 24   0.1329  1.1238   141.5    34.3    20.8
    2014 07 01    16 38 52.5 -00 01 00   0.1364  1.1283   142.8    33.0    20.8
    ...
    2014 07 07    17 00 25.4 -09 42 43   0.1613  1.1564   147.8    27.9    21.1
    ...
    2014 07 15    17 23 43.4 -18 36 41   0.2040  1.1957   148.8    26.1    21.6
    ...
    2014 07 30    17 58 17.9 -27 28 21   0.3059  1.2726   142.9    28.8    22.7
    
    A. U. Tomatic                (C) Copyright 2014 MPC           M.P.E.C. 2014-M77
    

    Read MPEC 2014-M76 Read MPEC 2014-N01


    MPEC number:

    Enter an MPEC number in one of the following forms:

    • 1997-B01 (the full form)
    • J97B01 (the packed version of the full form)
    • B01 (the abbreviated form)